Home > Weather > Hamilton > Past weeks

Flag for Canada Weather for the Past 2 Weeks in Hamilton, Ontario, Canada

Now
30 °F

Scattered clouds.


Feels Like: 21 °F
Forecast: N/A
Wind: 10 mph from Southwest

Location: Hamilton Airport

Current Time: Feb 5, 2016 at 5:40:22 PM

Latest Report: Feb 5, 2016 at 5:00 PM


Visibility: 15 mi

Pressure: 30.32 "Hg

Humidity: 69%

Dew point: 21 °F

Location of HamiltonLocation

Historic Weather in Hamilton — Graph

°F

Hamilton Temperature Yesterday

Maximum temperature yesterday: 37 °F (at 1:00 AM)
Minimum temperature yesterday: 28 °F (at 11:00 PM)
Average temperature yesterday: 34 °F

High & Low Weather Summary for the Past Weeks

 TemperatureHumidityPressure
High55 °F (Feb 3, 1:00 PM)100% (Jan 28, 8:00 PM)30.37 "Hg (Jan 28, 8:00 PM)
Low7 °F (Jan 24, 2:00 AM)51% (Feb 3, 4:00 PM)29.49 "Hg (Jan 31, 10:00 PM)
Average30 °F79%29.96 "Hg
* Reported Jan 21 4:00 PM — Feb 5 4:00 PM, Hamilton, Weather by CustomWeather, © 2016

Note: Actual official high and low records may vary slightly from our data, if they occured in-between our weather recording intervals... More about our weather records

Advertising

Hamilton Weather History for the Previous 24 Hours

 ConditionsComfort  
Time TempWeatherWind HumidityBarometerVisibility
4:00 PM
Fri, Feb 5
32 °FScattered showers. Partly sunny.12 mph60%30.32 "Hg15 mi
3:00 PM32 °FPartly sunny.13 mph55%30.32 "Hg15 mi
2:00 PM32 °FBroken clouds.12 mph55%30.31 "Hg15 mi
1:00 PM34 °FBroken clouds.12 mph65%30.31 "Hg15 mi
12:00 PM30 °FScattered clouds.9 mph69%30.32 "Hg15 mi
11:00 AM30 °FBroken clouds.10 mph75%30.33 "Hg15 mi
10:00 AM30 °FPassing clouds.7 mph75%30.32 "Hg15 mi
9:00 AM27 °FPartly sunny.6 mph86%30.32 "Hg15 mi
8:55 AM27 °FPartly sunny.5 mph80%30.32 "Hg15 mi
8:00 AM27 °FLight snow. Partly sunny.7 mph86%30.32 "Hg15 mi
7:00 AM27 °FLight snow. Mostly cloudy.5 mph93%30.30 "Hg15 mi
6:00 AM27 °FOvercast.5 mph93%30.28 "Hg12 mi
5:00 AM27 °FLight snow. Overcast.5 mph93%30.26 "Hg8 mi
4:00 AM27 °FLight snow. Overcast.6 mph93%30.25 "Hg5 mi
3:00 AM28 °FLight snow. Mostly cloudy.6 mph86%30.24 "Hg8 mi
2:00 AM28 °FLight snow. Overcast.2 mph93%30.24 "Hg10 mi
1:00 AM27 °FLight snow. Partly cloudy.3 mph93%30.23 "Hg12 mi
12:00 AM28 °FLight snow. Overcast.5 mph86%30.22 "Hg6 mi
11:00 PM
Thu, Feb 4
28 °FOvercast.2 mph80%30.22 "Hg7 mi
10:00 PM30 °FLight snow. Overcast.3 mph80%30.21 "Hg9 mi
9:00 PM30 °FMostly cloudy.3 mph75%30.21 "Hg15 mi
8:00 PM32 °FMostly cloudy.2 mph64%30.20 "Hg15 mi
7:00 PM32 °FOvercast.5 mph64%30.19 "Hg15 mi
6:00 PM32 °FOvercast.2 mph64%30.18 "Hg15 mi
5:00 PM34 °FPartly sunny.7 mph56%30.16 "Hg15 mi
Weather by CustomWeather, © 2016

See weather overviewHow to use our weather pages